Location: *
(40.7190°N, 4.2480°W)
Time: 15:23:30
(UTC+00:00)

Cosmos 1992 Rocket - Pass Details

Date: 18 February 2020
Orbit: 759 x 765 km, 74.0° (Epoch: 08 April)

Event Time Altitude Azimuth Distance (km) Brightness Sun altitude
Exits shadow 04:59:44 73° 281° (WNW) 800 3.8 -24.9°
Maximum altitude 04:59:59 75° 253° (WSW) 793 3.8 -24.9°
Drops below altitude 10° 05:05:10 10° 169° (S) 2,289 6.5 -23.9°
Sets 05:07:31 0° 167° (SSE) 3,209 7.3 -23.4°
